Index of /20260429/WXO-DD/model_rdps/10km/00/058
Name Last modified Size Description
Parent Directory -
20260429T00Z_MSC_RDPS_AbsoluteVorticity_IsbL-0250_RLatLon0.09_PT058H.grib2 2026-04-29 02:56 604K
20260429T00Z_MSC_RDPS_AbsoluteVorticity_IsbL-0500_RLatLon0.09_PT058H.grib2 2026-04-29 02:56 563K
20260429T00Z_MSC_RDPS_AbsoluteVorticity_IsbL-0700_RLatLon0.09_PT058H.grib2 2026-04-29 02:56 618K
20260429T00Z_MSC_RDPS_AbsoluteVorticity_IsbL-0850_RLatLon0.09_PT058H.grib2 2026-04-29 02:56 774K
20260429T00Z_MSC_RDPS_AirTemp_AGL-120m_RLatLon0.09_PT058H.grib2 2026-04-29 02:56 378K
20260429T00Z_MSC_RDPS_AirTemp_AGL-2m_RLatLon0.09_PT058H.grib2 2026-04-29 02:56 633K
20260429T00Z_MSC_RDPS_AirTemp_AGL-40m_RLatLon0.09_PT058H.grib2 2026-04-29 02:56 397K
20260429T00Z_MSC_RDPS_AirTemp_AGL-80m_RLatLon0.09_PT058H.grib2 2026-04-29 02:56 387K
20260429T00Z_MSC_RDPS_AirTemp_IsbL-0001_RLatLon0.09_PT058H.grib2 2026-04-29 02:56 301K
20260429T00Z_MSC_RDPS_AirTemp_IsbL-0005_RLatLon0.09_PT058H.grib2 2026-04-29 02:56 290K
20260429T00Z_MSC_RDPS_AirTemp_IsbL-0010_RLatLon0.09_PT058H.grib2 2026-04-29 02:56 300K
20260429T00Z_MSC_RDPS_AirTemp_IsbL-0020_RLatLon0.09_PT058H.grib2 2026-04-29 02:56 317K
20260429T00Z_MSC_RDPS_AirTemp_IsbL-0030_RLatLon0.09_PT058H.grib2 2026-04-29 02:56 338K
20260429T00Z_MSC_RDPS_AirTemp_IsbL-0050_RLatLon0.09_PT058H.grib2 2026-04-29 02:56 313K
20260429T00Z_MSC_RDPS_AirTemp_IsbL-0100_RLatLon0.09_PT058H.grib2 2026-04-29 02:56 421K
20260429T00Z_MSC_RDPS_AirTemp_IsbL-0150_RLatLon0.09_PT058H.grib2 2026-04-29 02:56 415K
20260429T00Z_MSC_RDPS_AirTemp_IsbL-0175_RLatLon0.09_PT058H.grib2 2026-04-29 02:56 410K
20260429T00Z_MSC_RDPS_AirTemp_IsbL-0200_RLatLon0.09_PT058H.grib2 2026-04-29 02:56 413K
20260429T00Z_MSC_RDPS_AirTemp_IsbL-0225_RLatLon0.09_PT058H.grib2 2026-04-29 02:56 413K
20260429T00Z_MSC_RDPS_AirTemp_IsbL-0250_RLatLon0.09_PT058H.grib2 2026-04-29 02:56 419K
20260429T00Z_MSC_RDPS_AirTemp_IsbL-0275_RLatLon0.09_PT058H.grib2 2026-04-29 02:56 398K
20260429T00Z_MSC_RDPS_AirTemp_IsbL-0300_RLatLon0.09_PT058H.grib2 2026-04-29 02:56 407K
20260429T00Z_MSC_RDPS_AirTemp_IsbL-0350_RLatLon0.09_PT058H.grib2 2026-04-29 02:56 420K
20260429T00Z_MSC_RDPS_AirTemp_IsbL-0400_RLatLon0.09_PT058H.grib2 2026-04-29 02:56 423K
20260429T00Z_MSC_RDPS_AirTemp_IsbL-0450_RLatLon0.09_PT058H.grib2 2026-04-29 02:56 394K
20260429T00Z_MSC_RDPS_AirTemp_IsbL-0500_RLatLon0.09_PT058H.grib2 2026-04-29 02:56 403K
20260429T00Z_MSC_RDPS_AirTemp_IsbL-0550_RLatLon0.09_PT058H.grib2 2026-04-29 02:56 420K
20260429T00Z_MSC_RDPS_AirTemp_IsbL-0600_RLatLon0.09_PT058H.grib2 2026-04-29 02:56 439K
20260429T00Z_MSC_RDPS_AirTemp_IsbL-0650_RLatLon0.09_PT058H.grib2 2026-04-29 02:56 455K
20260429T00Z_MSC_RDPS_AirTemp_IsbL-0700_RLatLon0.09_PT058H.grib2 2026-04-29 02:56 479K
20260429T00Z_MSC_RDPS_AirTemp_IsbL-0750_RLatLon0.09_PT058H.grib2 2026-04-29 02:56 515K
20260429T00Z_MSC_RDPS_AirTemp_IsbL-0800_RLatLon0.09_PT058H.grib2 2026-04-29 02:56 562K
20260429T00Z_MSC_RDPS_AirTemp_IsbL-0850_RLatLon0.09_PT058H.grib2 2026-04-29 02:56 499K
20260429T00Z_MSC_RDPS_AirTemp_IsbL-0875_RLatLon0.09_PT058H.grib2 2026-04-29 02:56 519K
20260429T00Z_MSC_RDPS_AirTemp_IsbL-0900_RLatLon0.09_PT058H.grib2 2026-04-29 02:56 528K
20260429T00Z_MSC_RDPS_AirTemp_IsbL-0925_RLatLon0.09_PT058H.grib2 2026-04-29 02:56 527K
20260429T00Z_MSC_RDPS_AirTemp_IsbL-0950_RLatLon0.09_PT058H.grib2 2026-04-29 02:56 528K
20260429T00Z_MSC_RDPS_AirTemp_IsbL-0970_RLatLon0.09_PT058H.grib2 2026-04-29 02:56 521K
20260429T00Z_MSC_RDPS_AirTemp_IsbL-0985_RLatLon0.09_PT058H.grib2 2026-04-29 02:56 509K
20260429T00Z_MSC_RDPS_AirTemp_IsbL-1000_RLatLon0.09_PT058H.grib2 2026-04-29 02:56 494K
20260429T00Z_MSC_RDPS_AirTemp_IsbL-1015_RLatLon0.09_PT058H.grib2 2026-04-29 02:56 492K
20260429T00Z_MSC_RDPS_Albedo_Sfc_RLatLon0.09_PT058H.grib2 2026-04-29 02:56 159K
20260429T00Z_MSC_RDPS_CAPE_Sfc_RLatLon0.09_PT058H.grib2 2026-04-29 02:56 1.6M
20260429T00Z_MSC_RDPS_CIN_Sfc_RLatLon0.09_PT058H.grib2 2026-04-29 02:56 1.1M
20260429T00Z_MSC_RDPS_CloudWater_EAtm_RLatLon0.09_PT058H.grib2 2026-04-29 02:56 219K
20260429T00Z_MSC_RDPS_ConvectivePrecip-Accum_Sfc_RLatLon0.09_PT058H.grib2 2026-04-29 02:56 1.1M
20260429T00Z_MSC_RDPS_DewPointDepression_AGL-2m_RLatLon0.09_PT058H.grib2 2026-04-29 02:56 393K
20260429T00Z_MSC_RDPS_DewPointDepression_IsbL-0001_RLatLon0.09_PT058H.grib2 2026-04-29 02:56 193
20260429T00Z_MSC_RDPS_DewPointDepression_IsbL-0005_RLatLon0.09_PT058H.grib2 2026-04-29 02:56 193
20260429T00Z_MSC_RDPS_DewPointDepression_IsbL-0010_RLatLon0.09_PT058H.grib2 2026-04-29 02:56 193
20260429T00Z_MSC_RDPS_DewPointDepression_IsbL-0020_RLatLon0.09_PT058H.grib2 2026-04-29 02:56 193
20260429T00Z_MSC_RDPS_DewPointDepression_IsbL-0030_RLatLon0.09_PT058H.grib2 2026-04-29 02:56 193
20260429T00Z_MSC_RDPS_DewPointDepression_IsbL-0050_RLatLon0.09_PT058H.grib2 2026-04-29 02:56 80K
20260429T00Z_MSC_RDPS_DewPointDepression_IsbL-0100_RLatLon0.09_PT058H.grib2 2026-04-29 02:56 126K
20260429T00Z_MSC_RDPS_DewPointDepression_IsbL-0150_RLatLon0.09_PT058H.grib2 2026-04-29 02:56 147K
20260429T00Z_MSC_RDPS_DewPointDepression_IsbL-0175_RLatLon0.09_PT058H.grib2 2026-04-29 02:56 178K
20260429T00Z_MSC_RDPS_DewPointDepression_IsbL-0200_RLatLon0.09_PT058H.grib2 2026-04-29 02:56 214K
20260429T00Z_MSC_RDPS_DewPointDepression_IsbL-0225_RLatLon0.09_PT058H.grib2 2026-04-29 02:56 254K
20260429T00Z_MSC_RDPS_DewPointDepression_IsbL-0250_RLatLon0.09_PT058H.grib2 2026-04-29 02:56 294K
20260429T00Z_MSC_RDPS_DewPointDepression_IsbL-0275_RLatLon0.09_PT058H.grib2 2026-04-29 02:56 304K
20260429T00Z_MSC_RDPS_DewPointDepression_IsbL-0300_RLatLon0.09_PT058H.grib2 2026-04-29 02:56 325K
20260429T00Z_MSC_RDPS_DewPointDepression_IsbL-0350_RLatLon0.09_PT058H.grib2 2026-04-29 02:56 330K
20260429T00Z_MSC_RDPS_DewPointDepression_IsbL-0400_RLatLon0.09_PT058H.grib2 2026-04-29 02:56 340K
20260429T00Z_MSC_RDPS_DewPointDepression_IsbL-0450_RLatLon0.09_PT058H.grib2 2026-04-29 02:56 348K
20260429T00Z_MSC_RDPS_DewPointDepression_IsbL-0500_RLatLon0.09_PT058H.grib2 2026-04-29 02:56 353K
20260429T00Z_MSC_RDPS_DewPointDepression_IsbL-0550_RLatLon0.09_PT058H.grib2 2026-04-29 02:56 361K
20260429T00Z_MSC_RDPS_DewPointDepression_IsbL-0600_RLatLon0.09_PT058H.grib2 2026-04-29 02:56 372K
20260429T00Z_MSC_RDPS_DewPointDepression_IsbL-0650_RLatLon0.09_PT058H.grib2 2026-04-29 02:56 377K
20260429T00Z_MSC_RDPS_DewPointDepression_IsbL-0700_RLatLon0.09_PT058H.grib2 2026-04-29 02:56 385K
20260429T00Z_MSC_RDPS_DewPointDepression_IsbL-0750_RLatLon0.09_PT058H.grib2 2026-04-29 02:56 403K
20260429T00Z_MSC_RDPS_DewPointDepression_IsbL-0800_RLatLon0.09_PT058H.grib2 2026-04-29 02:56 433K
20260429T00Z_MSC_RDPS_DewPointDepression_IsbL-0850_RLatLon0.09_PT058H.grib2 2026-04-29 02:56 467K
20260429T00Z_MSC_RDPS_DewPointDepression_IsbL-0875_RLatLon0.09_PT058H.grib2 2026-04-29 02:56 470K
20260429T00Z_MSC_RDPS_DewPointDepression_IsbL-0900_RLatLon0.09_PT058H.grib2 2026-04-29 02:56 462K
20260429T00Z_MSC_RDPS_DewPointDepression_IsbL-0925_RLatLon0.09_PT058H.grib2 2026-04-29 02:56 449K
20260429T00Z_MSC_RDPS_DewPointDepression_IsbL-0950_RLatLon0.09_PT058H.grib2 2026-04-29 02:56 444K
20260429T00Z_MSC_RDPS_DewPointDepression_IsbL-0970_RLatLon0.09_PT058H.grib2 2026-04-29 02:56 435K
20260429T00Z_MSC_RDPS_DewPointDepression_IsbL-0985_RLatLon0.09_PT058H.grib2 2026-04-29 02:56 428K
20260429T00Z_MSC_RDPS_DewPointDepression_IsbL-1000_RLatLon0.09_PT058H.grib2 2026-04-29 02:56 424K
20260429T00Z_MSC_RDPS_DewPointDepression_IsbL-1015_RLatLon0.09_PT058H.grib2 2026-04-29 02:56 415K
20260429T00Z_MSC_RDPS_DewPoint_AGL-2m_RLatLon0.09_PT058H.grib2 2026-04-29 02:56 398K
20260429T00Z_MSC_RDPS_DownwardLongwaveRadiationFlux-Accum_Sfc_RLatLon0.09_PT058H.grib2 2026-04-29 02:56 397K
20260429T00Z_MSC_RDPS_DownwardShortwaveRadiationFlux-Accum_NTAtm_RLatLon0.09_PT058H.grib2 2026-04-29 02:56 148K
20260429T00Z_MSC_RDPS_DownwardShortwaveRadiationFlux-Accum_Sfc_RLatLon0.09_PT058H.grib2 2026-04-29 02:56 564K
20260429T00Z_MSC_RDPS_FreezingRain-Accum1h_Sfc_RLatLon0.09_PT058H.grib2 2026-04-29 02:56 48K
20260429T00Z_MSC_RDPS_FreezingRain-Accum_Sfc_RLatLon0.09_PT058H.grib2 2026-04-29 02:56 203K
20260429T00Z_MSC_RDPS_GeopotentialHeight_IsbL-0001_RLatLon0.09_PT058H.grib2 2026-04-29 02:56 310K
20260429T00Z_MSC_RDPS_GeopotentialHeight_IsbL-0005_RLatLon0.09_PT058H.grib2 2026-04-29 02:56 302K
20260429T00Z_MSC_RDPS_GeopotentialHeight_IsbL-0010_RLatLon0.09_PT058H.grib2 2026-04-29 02:56 304K
20260429T00Z_MSC_RDPS_GeopotentialHeight_IsbL-0020_RLatLon0.09_PT058H.grib2 2026-04-29 02:56 304K
20260429T00Z_MSC_RDPS_GeopotentialHeight_IsbL-0030_RLatLon0.09_PT058H.grib2 2026-04-29 02:56 304K
20260429T00Z_MSC_RDPS_GeopotentialHeight_IsbL-0050_RLatLon0.09_PT058H.grib2 2026-04-29 02:56 307K
20260429T00Z_MSC_RDPS_GeopotentialHeight_IsbL-0100_RLatLon0.09_PT058H.grib2 2026-04-29 02:56 283K
20260429T00Z_MSC_RDPS_GeopotentialHeight_IsbL-0150_RLatLon0.09_PT058H.grib2 2026-04-29 02:56 226K
20260429T00Z_MSC_RDPS_GeopotentialHeight_IsbL-0175_RLatLon0.09_PT058H.grib2 2026-04-29 02:56 260K
20260429T00Z_MSC_RDPS_GeopotentialHeight_IsbL-0200_RLatLon0.09_PT058H.grib2 2026-04-29 02:56 262K
20260429T00Z_MSC_RDPS_GeopotentialHeight_IsbL-0225_RLatLon0.09_PT058H.grib2 2026-04-29 02:56 264K
20260429T00Z_MSC_RDPS_GeopotentialHeight_IsbL-0250_RLatLon0.09_PT058H.grib2 2026-04-29 02:56 265K
20260429T00Z_MSC_RDPS_GeopotentialHeight_IsbL-0275_RLatLon0.09_PT058H.grib2 2026-04-29 02:56 264K
20260429T00Z_MSC_RDPS_GeopotentialHeight_IsbL-0300_RLatLon0.09_PT058H.grib2 2026-04-29 02:56 264K
20260429T00Z_MSC_RDPS_GeopotentialHeight_IsbL-0350_RLatLon0.09_PT058H.grib2 2026-04-29 02:56 230K
20260429T00Z_MSC_RDPS_GeopotentialHeight_IsbL-0400_RLatLon0.09_PT058H.grib2 2026-04-29 02:56 226K
20260429T00Z_MSC_RDPS_GeopotentialHeight_IsbL-0450_RLatLon0.09_PT058H.grib2 2026-04-29 02:56 294K
20260429T00Z_MSC_RDPS_GeopotentialHeight_IsbL-0500_RLatLon0.09_PT058H.grib2 2026-04-29 02:56 290K
20260429T00Z_MSC_RDPS_GeopotentialHeight_IsbL-0550_RLatLon0.09_PT058H.grib2 2026-04-29 02:56 286K
20260429T00Z_MSC_RDPS_GeopotentialHeight_IsbL-0600_RLatLon0.09_PT058H.grib2 2026-04-29 02:56 255K
20260429T00Z_MSC_RDPS_GeopotentialHeight_IsbL-0650_RLatLon0.09_PT058H.grib2 2026-04-29 02:56 253K
20260429T00Z_MSC_RDPS_GeopotentialHeight_IsbL-0700_RLatLon0.09_PT058H.grib2 2026-04-29 02:56 252K
20260429T00Z_MSC_RDPS_GeopotentialHeight_IsbL-0750_RLatLon0.09_PT058H.grib2 2026-04-29 02:56 335K
20260429T00Z_MSC_RDPS_GeopotentialHeight_IsbL-0800_RLatLon0.09_PT058H.grib2 2026-04-29 02:56 343K
20260429T00Z_MSC_RDPS_GeopotentialHeight_IsbL-0850_RLatLon0.09_PT058H.grib2 2026-04-29 02:56 354K
20260429T00Z_MSC_RDPS_GeopotentialHeight_IsbL-0875_RLatLon0.09_PT058H.grib2 2026-04-29 02:56 357K
20260429T00Z_MSC_RDPS_GeopotentialHeight_IsbL-0900_RLatLon0.09_PT058H.grib2 2026-04-29 02:56 360K
20260429T00Z_MSC_RDPS_GeopotentialHeight_IsbL-0925_RLatLon0.09_PT058H.grib2 2026-04-29 02:56 361K
20260429T00Z_MSC_RDPS_GeopotentialHeight_IsbL-0950_RLatLon0.09_PT058H.grib2 2026-04-29 02:56 365K
20260429T00Z_MSC_RDPS_GeopotentialHeight_IsbL-0970_RLatLon0.09_PT058H.grib2 2026-04-29 02:56 371K
20260429T00Z_MSC_RDPS_GeopotentialHeight_IsbL-0985_RLatLon0.09_PT058H.grib2 2026-04-29 02:56 380K
20260429T00Z_MSC_RDPS_GeopotentialHeight_IsbL-1000_RLatLon0.09_PT058H.grib2 2026-04-29 02:56 392K
20260429T00Z_MSC_RDPS_GeopotentialHeight_IsbL-1015_RLatLon0.09_PT058H.grib2 2026-04-29 02:56 407K
20260429T00Z_MSC_RDPS_Humidex_Sfc_RLatLon0.09_PT058H.grib2 2026-04-29 02:56 2.4M
20260429T00Z_MSC_RDPS_IcePellets-Accum1h_Sfc_RLatLon0.09_PT058H.grib2 2026-04-29 02:56 5.8K
20260429T00Z_MSC_RDPS_IcePellets-Accum_Sfc_RLatLon0.09_PT058H.grib2 2026-04-29 02:56 27K
20260429T00Z_MSC_RDPS_KIndex_Sfc_RLatLon0.09_PT058H.grib2 2026-04-29 02:56 2.5M
20260429T00Z_MSC_RDPS_LatentHeatNetFlux_Sfc_RLatLon0.09_PT058H.grib2 2026-04-29 02:56 406K
20260429T00Z_MSC_RDPS_LiftedIndex-MU-VT_IsbL-0500_RLatLon0.09_PT058H.grib2 2026-04-29 02:56 2.4M
20260429T00Z_MSC_RDPS_NetLongwaveRadiationFlux-Accum_Sfc_RLatLon0.09_PT058H.grib2 2026-04-29 02:56 567K
20260429T00Z_MSC_RDPS_NetShortwaveRadiationFlux-Accum_Sfc_RLatLon0.09_PT058H.grib2 2026-04-29 02:56 565K
20260429T00Z_MSC_RDPS_PlanetaryBoundaryLayerHeight_Sfc_RLatLon0.09_PT058H.grib2 2026-04-29 02:56 1.1M
20260429T00Z_MSC_RDPS_Precip-Accum1h_Sfc_RLatLon0.09_PT058H.grib2 2026-04-29 02:56 1.2M
20260429T00Z_MSC_RDPS_Precip-Accum_Sfc_RLatLon0.09_PT058H.grib2 2026-04-29 02:56 2.1M
20260429T00Z_MSC_RDPS_PrecipRate_Sfc_RLatLon0.09_PT058H.grib2 2026-04-29 02:56 164K
20260429T00Z_MSC_RDPS_PrecipType-Instant_Sfc_RLatLon0.09_PT058H.grib2 2026-04-29 02:56 573K
20260429T00Z_MSC_RDPS_Pressure-Trend3h_Sfc_RLatLon0.09_PT058H.grib2 2026-04-29 02:56 1.2M
20260429T00Z_MSC_RDPS_Pressure_MSL_RLatLon0.09_PT058H.grib2 2026-04-29 02:56 324K
20260429T00Z_MSC_RDPS_Pressure_PVU-1.5_RLatLon0.09_PT058H.grib2 2026-04-29 02:56 2.5M
20260429T00Z_MSC_RDPS_Pressure_PVU-1_RLatLon0.09_PT058H.grib2 2026-04-29 02:56 2.4M
20260429T00Z_MSC_RDPS_Pressure_PVU-2_RLatLon0.09_PT058H.grib2 2026-04-29 02:56 2.4M
20260429T00Z_MSC_RDPS_Pressure_Sfc_RLatLon0.09_PT058H.grib2 2026-04-29 02:56 499K
20260429T00Z_MSC_RDPS_RadiativeTemp_Sfc_RLatLon0.09_PT058H.grib2 2026-04-29 02:56 311K
20260429T00Z_MSC_RDPS_Rain-Accum1h_Sfc_RLatLon0.09_PT058H.grib2 2026-04-29 02:56 538K
20260429T00Z_MSC_RDPS_Rain-Accum_Sfc_RLatLon0.09_PT058H.grib2 2026-04-29 02:56 1.6M
20260429T00Z_MSC_RDPS_RelativeHumidity_AGL-2m_RLatLon0.09_PT058H.grib2 2026-04-29 02:56 1.0M
20260429T00Z_MSC_RDPS_RelativeHumidity_IsbL-0010_RLatLon0.09_PT058H.grib2 2026-04-29 02:56 632K
20260429T00Z_MSC_RDPS_RelativeHumidity_IsbL-0020_RLatLon0.09_PT058H.grib2 2026-04-29 02:56 677K
20260429T00Z_MSC_RDPS_RelativeHumidity_IsbL-0030_RLatLon0.09_PT058H.grib2 2026-04-29 02:56 606K
20260429T00Z_MSC_RDPS_RelativeHumidity_IsbL-0050_RLatLon0.09_PT058H.grib2 2026-04-29 02:56 315K
20260429T00Z_MSC_RDPS_RelativeHumidity_IsbL-0100_RLatLon0.09_PT058H.grib2 2026-04-29 02:56 276K
20260429T00Z_MSC_RDPS_RelativeHumidity_IsbL-0150_RLatLon0.09_PT058H.grib2 2026-04-29 02:56 396K
20260429T00Z_MSC_RDPS_RelativeHumidity_IsbL-0175_RLatLon0.09_PT058H.grib2 2026-04-29 02:56 463K
20260429T00Z_MSC_RDPS_RelativeHumidity_IsbL-0200_RLatLon0.09_PT058H.grib2 2026-04-29 02:56 547K
20260429T00Z_MSC_RDPS_RelativeHumidity_IsbL-0225_RLatLon0.09_PT058H.grib2 2026-04-29 02:56 617K
20260429T00Z_MSC_RDPS_RelativeHumidity_IsbL-0250_RLatLon0.09_PT058H.grib2 2026-04-29 02:56 688K
20260429T00Z_MSC_RDPS_RelativeHumidity_IsbL-0275_RLatLon0.09_PT058H.grib2 2026-04-29 02:56 718K
20260429T00Z_MSC_RDPS_RelativeHumidity_IsbL-0300_RLatLon0.09_PT058H.grib2 2026-04-29 02:56 765K
20260429T00Z_MSC_RDPS_RelativeHumidity_IsbL-0350_RLatLon0.09_PT058H.grib2 2026-04-29 02:56 782K
20260429T00Z_MSC_RDPS_RelativeHumidity_IsbL-0400_RLatLon0.09_PT058H.grib2 2026-04-29 02:56 791K
20260429T00Z_MSC_RDPS_RelativeHumidity_IsbL-0450_RLatLon0.09_PT058H.grib2 2026-04-29 02:56 799K
20260429T00Z_MSC_RDPS_RelativeHumidity_IsbL-0500_RLatLon0.09_PT058H.grib2 2026-04-29 02:56 801K
20260429T00Z_MSC_RDPS_RelativeHumidity_IsbL-0550_RLatLon0.09_PT058H.grib2 2026-04-29 02:56 818K
20260429T00Z_MSC_RDPS_RelativeHumidity_IsbL-0600_RLatLon0.09_PT058H.grib2 2026-04-29 02:56 840K
20260429T00Z_MSC_RDPS_RelativeHumidity_IsbL-0650_RLatLon0.09_PT058H.grib2 2026-04-29 02:56 851K
20260429T00Z_MSC_RDPS_RelativeHumidity_IsbL-0700_RLatLon0.09_PT058H.grib2 2026-04-29 02:56 874K
20260429T00Z_MSC_RDPS_RelativeHumidity_IsbL-0750_RLatLon0.09_PT058H.grib2 2026-04-29 02:56 920K
20260429T00Z_MSC_RDPS_RelativeHumidity_IsbL-0800_RLatLon0.09_PT058H.grib2 2026-04-29 02:56 1.0M
20260429T00Z_MSC_RDPS_RelativeHumidity_IsbL-0850_RLatLon0.09_PT058H.grib2 2026-04-29 02:56 1.0M
20260429T00Z_MSC_RDPS_RelativeHumidity_IsbL-0875_RLatLon0.09_PT058H.grib2 2026-04-29 02:56 1.1M
20260429T00Z_MSC_RDPS_RelativeHumidity_IsbL-0900_RLatLon0.09_PT058H.grib2 2026-04-29 02:56 1.1M
20260429T00Z_MSC_RDPS_RelativeHumidity_IsbL-0925_RLatLon0.09_PT058H.grib2 2026-04-29 02:56 1.1M
20260429T00Z_MSC_RDPS_RelativeHumidity_IsbL-0950_RLatLon0.09_PT058H.grib2 2026-04-29 02:56 1.1M
20260429T00Z_MSC_RDPS_RelativeHumidity_IsbL-0970_RLatLon0.09_PT058H.grib2 2026-04-29 02:56 1.1M
20260429T00Z_MSC_RDPS_RelativeHumidity_IsbL-0985_RLatLon0.09_PT058H.grib2 2026-04-29 02:56 1.0M
20260429T00Z_MSC_RDPS_RelativeHumidity_IsbL-1000_RLatLon0.09_PT058H.grib2 2026-04-29 02:56 1.0M
20260429T00Z_MSC_RDPS_RelativeHumidity_IsbL-1015_RLatLon0.09_PT058H.grib2 2026-04-29 02:56 1.0M
20260429T00Z_MSC_RDPS_Runoff-Accum_Sfc_RLatLon0.09_PT058H.grib2 2026-04-29 02:56 57K
20260429T00Z_MSC_RDPS_SWEATIndex_Sfc_RLatLon0.09_PT058H.grib2 2026-04-29 02:56 2.4M
20260429T00Z_MSC_RDPS_SeeingIndex_EAtm_RLatLon0.09_PT058H.grib2 2026-04-29 02:56 1.0M
20260429T00Z_MSC_RDPS_SensibleHeatNetFlux_Sfc_RLatLon0.09_PT058H.grib2 2026-04-29 02:56 294K
20260429T00Z_MSC_RDPS_ShowalterIndex_IsbL-0500_RLatLon0.09_PT058H.grib2 2026-04-29 02:56 2.6M
20260429T00Z_MSC_RDPS_SkyTransparencyIndex_EAtm_RLatLon0.09_PT058H.grib2 2026-04-29 02:56 711K
20260429T00Z_MSC_RDPS_Snow-Accum1h_Sfc_RLatLon0.09_PT058H.grib2 2026-04-29 02:56 457K
20260429T00Z_MSC_RDPS_Snow-Accum_Sfc_RLatLon0.09_PT058H.grib2 2026-04-29 02:56 762K
20260429T00Z_MSC_RDPS_SnowDensity_Sfc_RLatLon0.09_PT058H.grib2 2026-04-29 02:56 181K
20260429T00Z_MSC_RDPS_SnowDepth_Sfc_RLatLon0.09_PT058H.grib2 2026-04-29 02:56 677K
20260429T00Z_MSC_RDPS_SoilTemp_DBS-0to10cm_RLatLon0.09_PT058H.grib2 2026-04-29 02:56 239K
20260429T00Z_MSC_RDPS_SoilTemp_Sfc_RLatLon0.09_PT058H.grib2 2026-04-29 02:56 275K
20260429T00Z_MSC_RDPS_SoilVolumetricIceContent_Sfc_RLatLon0.09_PT058H.grib2 2026-04-29 02:56 163K
20260429T00Z_MSC_RDPS_SoilVolumetricWaterContent_DBS-0to10cm_RLatLon0.09_PT058H.grib2 2026-04-29 02:56 269K
20260429T00Z_MSC_RDPS_SoilVolumetricWaterContent_DBS-0to1cm_RLatLon0.09_PT058H.grib2 2026-04-29 02:56 339K
20260429T00Z_MSC_RDPS_SpecificHumidity_AGL-120m_RLatLon0.09_PT058H.grib2 2026-04-29 02:56 489K
20260429T00Z_MSC_RDPS_SpecificHumidity_AGL-2m_RLatLon0.09_PT058H.grib2 2026-04-29 02:56 656K
20260429T00Z_MSC_RDPS_SpecificHumidity_AGL-40m_RLatLon0.09_PT058H.grib2 2026-04-29 02:56 495K
20260429T00Z_MSC_RDPS_SpecificHumidity_AGL-80m_RLatLon0.09_PT058H.grib2 2026-04-29 02:56 491K
20260429T00Z_MSC_RDPS_SpecificHumidity_IsbL-0001_RLatLon0.09_PT058H.grib2 2026-04-29 02:56 352K
20260429T00Z_MSC_RDPS_SpecificHumidity_IsbL-0005_RLatLon0.09_PT058H.grib2 2026-04-29 02:56 358K
20260429T00Z_MSC_RDPS_SpecificHumidity_IsbL-0010_RLatLon0.09_PT058H.grib2 2026-04-29 02:56 393K
20260429T00Z_MSC_RDPS_SpecificHumidity_IsbL-0020_RLatLon0.09_PT058H.grib2 2026-04-29 02:56 383K
20260429T00Z_MSC_RDPS_SpecificHumidity_IsbL-0030_RLatLon0.09_PT058H.grib2 2026-04-29 02:56 365K
20260429T00Z_MSC_RDPS_SpecificHumidity_IsbL-0050_RLatLon0.09_PT058H.grib2 2026-04-29 02:56 476K
20260429T00Z_MSC_RDPS_SpecificHumidity_IsbL-0100_RLatLon0.09_PT058H.grib2 2026-04-29 02:56 419K
20260429T00Z_MSC_RDPS_SpecificHumidity_IsbL-0150_RLatLon0.09_PT058H.grib2 2026-04-29 02:56 442K
20260429T00Z_MSC_RDPS_SpecificHumidity_IsbL-0175_RLatLon0.09_PT058H.grib2 2026-04-29 02:56 419K
20260429T00Z_MSC_RDPS_SpecificHumidity_IsbL-0200_RLatLon0.09_PT058H.grib2 2026-04-29 02:56 440K
20260429T00Z_MSC_RDPS_SpecificHumidity_IsbL-0225_RLatLon0.09_PT058H.grib2 2026-04-29 02:56 444K
20260429T00Z_MSC_RDPS_SpecificHumidity_IsbL-0250_RLatLon0.09_PT058H.grib2 2026-04-29 02:56 507K
20260429T00Z_MSC_RDPS_SpecificHumidity_IsbL-0275_RLatLon0.09_PT058H.grib2 2026-04-29 02:56 470K
20260429T00Z_MSC_RDPS_SpecificHumidity_IsbL-0300_RLatLon0.09_PT058H.grib2 2026-04-29 02:56 448K
20260429T00Z_MSC_RDPS_SpecificHumidity_IsbL-0350_RLatLon0.09_PT058H.grib2 2026-04-29 02:56 438K
20260429T00Z_MSC_RDPS_SpecificHumidity_IsbL-0400_RLatLon0.09_PT058H.grib2 2026-04-29 02:56 515K
20260429T00Z_MSC_RDPS_SpecificHumidity_IsbL-0450_RLatLon0.09_PT058H.grib2 2026-04-29 02:56 570K
20260429T00Z_MSC_RDPS_SpecificHumidity_IsbL-0500_RLatLon0.09_PT058H.grib2 2026-04-29 02:56 505K
20260429T00Z_MSC_RDPS_SpecificHumidity_IsbL-0550_RLatLon0.09_PT058H.grib2 2026-04-29 02:56 576K
20260429T00Z_MSC_RDPS_SpecificHumidity_IsbL-0600_RLatLon0.09_PT058H.grib2 2026-04-29 02:56 629K
20260429T00Z_MSC_RDPS_SpecificHumidity_IsbL-0650_RLatLon0.09_PT058H.grib2 2026-04-29 02:56 545K
20260429T00Z_MSC_RDPS_SpecificHumidity_IsbL-0700_RLatLon0.09_PT058H.grib2 2026-04-29 02:56 587K
20260429T00Z_MSC_RDPS_SpecificHumidity_IsbL-0750_RLatLon0.09_PT058H.grib2 2026-04-29 02:56 639K
20260429T00Z_MSC_RDPS_SpecificHumidity_IsbL-0800_RLatLon0.09_PT058H.grib2 2026-04-29 02:56 706K
20260429T00Z_MSC_RDPS_SpecificHumidity_IsbL-0850_RLatLon0.09_PT058H.grib2 2026-04-29 02:56 794K
20260429T00Z_MSC_RDPS_SpecificHumidity_IsbL-0875_RLatLon0.09_PT058H.grib2 2026-04-29 02:56 822K
20260429T00Z_MSC_RDPS_SpecificHumidity_IsbL-0900_RLatLon0.09_PT058H.grib2 2026-04-29 02:56 837K
20260429T00Z_MSC_RDPS_SpecificHumidity_IsbL-0925_RLatLon0.09_PT058H.grib2 2026-04-29 02:56 840K
20260429T00Z_MSC_RDPS_SpecificHumidity_IsbL-0950_RLatLon0.09_PT058H.grib2 2026-04-29 02:56 843K
20260429T00Z_MSC_RDPS_SpecificHumidity_IsbL-0970_RLatLon0.09_PT058H.grib2 2026-04-29 02:56 832K
20260429T00Z_MSC_RDPS_SpecificHumidity_IsbL-0985_RLatLon0.09_PT058H.grib2 2026-04-29 02:56 822K
20260429T00Z_MSC_RDPS_SpecificHumidity_IsbL-1000_RLatLon0.09_PT058H.grib2 2026-04-29 02:56 674K
20260429T00Z_MSC_RDPS_SpecificHumidity_IsbL-1015_RLatLon0.09_PT058H.grib2 2026-04-29 02:56 664K
20260429T00Z_MSC_RDPS_SpecificHumidity_Sfc_RLatLon0.09_PT058H.grib2 2026-04-29 02:56 296K
20260429T00Z_MSC_RDPS_StormRelativeHelicity_EtaL-10000_RLatLon0.09_PT058H.grib2 2026-04-29 02:56 1.1M
20260429T00Z_MSC_RDPS_StormSeverityIndex_EtaL-10000_RLatLon0.09_PT058H.grib2 2026-04-29 02:56 1.2M
20260429T00Z_MSC_RDPS_Thickness_IsbL-0850to0700_RLatLon0.09_PT058H.grib2 2026-04-29 02:56 176K
20260429T00Z_MSC_RDPS_Thickness_IsbL-1000to0500_RLatLon0.09_PT058H.grib2 2026-04-29 02:56 196K
20260429T00Z_MSC_RDPS_Thickness_IsbL-1000to0850_RLatLon0.09_PT058H.grib2 2026-04-29 02:56 260K
20260429T00Z_MSC_RDPS_TotalCloudCover_Sfc_RLatLon0.09_PT058H.grib2 2026-04-29 02:56 660K
20260429T00Z_MSC_RDPS_TotalTotalsIndex_Sfc_RLatLon0.09_PT058H.grib2 2026-04-29 02:56 2.4M
20260429T00Z_MSC_RDPS_UVIndex-ClearSky_Sfc_RLatLon0.09_PT058H.grib2 2026-04-29 02:56 134K
20260429T00Z_MSC_RDPS_UVIndex_Sfc_RLatLon0.09_PT058H.grib2 2026-04-29 02:56 251K
20260429T00Z_MSC_RDPS_UpwardLongwaveRadiationFlux_NTAtm_RLatLon0.09_PT058H.grib2 2026-04-29 02:56 482K
20260429T00Z_MSC_RDPS_UpwardShortwaveRadiationFlux_NTAtm_RLatLon0.09_PT058H.grib2 2026-04-29 02:56 196K
20260429T00Z_MSC_RDPS_VerticalVelocity_IsbL-0250_RLatLon0.09_PT058H.grib2 2026-04-29 02:56 427K
20260429T00Z_MSC_RDPS_VerticalVelocity_IsbL-0500_RLatLon0.09_PT058H.grib2 2026-04-29 02:56 539K
20260429T00Z_MSC_RDPS_VerticalVelocity_IsbL-0700_RLatLon0.09_PT058H.grib2 2026-04-29 02:56 613K
20260429T00Z_MSC_RDPS_VerticalVelocity_IsbL-0850_RLatLon0.09_PT058H.grib2 2026-04-29 02:56 657K
20260429T00Z_MSC_RDPS_VerticalWindShear_EtaL-6500_RLatLon0.09_PT058H.grib2 2026-04-29 02:56 1.2M
20260429T00Z_MSC_RDPS_WindChill_Sfc_RLatLon0.09_PT058H.grib2 2026-04-29 02:56 1.2M
20260429T00Z_MSC_RDPS_WindDir_AGL-10m_RLatLon0.09_PT058H.grib2 2026-04-29 02:56 1.0M
20260429T00Z_MSC_RDPS_WindDir_AGL-120m_RLatLon0.09_PT058H.grib2 2026-04-29 02:56 605K
20260429T00Z_MSC_RDPS_WindDir_AGL-40m_RLatLon0.09_PT058H.grib2 2026-04-29 02:56 639K
20260429T00Z_MSC_RDPS_WindDir_AGL-80m_RLatLon0.09_PT058H.grib2 2026-04-29 02:56 618K
20260429T00Z_MSC_RDPS_WindDir_IsbL-0001_RLatLon0.09_PT058H.grib2 2026-04-29 02:56 316K
20260429T00Z_MSC_RDPS_WindDir_IsbL-0005_RLatLon0.09_PT058H.grib2 2026-04-29 02:56 371K
20260429T00Z_MSC_RDPS_WindDir_IsbL-0010_RLatLon0.09_PT058H.grib2 2026-04-29 02:56 380K
20260429T00Z_MSC_RDPS_WindDir_IsbL-0020_RLatLon0.09_PT058H.grib2 2026-04-29 02:56 415K
20260429T00Z_MSC_RDPS_WindDir_IsbL-0030_RLatLon0.09_PT058H.grib2 2026-04-29 02:56 414K
20260429T00Z_MSC_RDPS_WindDir_IsbL-0050_RLatLon0.09_PT058H.grib2 2026-04-29 02:56 432K
20260429T00Z_MSC_RDPS_WindDir_IsbL-0100_RLatLon0.09_PT058H.grib2 2026-04-29 02:56 418K
20260429T00Z_MSC_RDPS_WindDir_IsbL-0150_RLatLon0.09_PT058H.grib2 2026-04-29 02:56 419K
20260429T00Z_MSC_RDPS_WindDir_IsbL-0175_RLatLon0.09_PT058H.grib2 2026-04-29 02:56 441K
20260429T00Z_MSC_RDPS_WindDir_IsbL-0200_RLatLon0.09_PT058H.grib2 2026-04-29 02:56 454K
20260429T00Z_MSC_RDPS_WindDir_IsbL-0225_RLatLon0.09_PT058H.grib2 2026-04-29 02:56 457K
20260429T00Z_MSC_RDPS_WindDir_IsbL-0250_RLatLon0.09_PT058H.grib2 2026-04-29 02:56 455K
20260429T00Z_MSC_RDPS_WindDir_IsbL-0275_RLatLon0.09_PT058H.grib2 2026-04-29 02:56 478K
20260429T00Z_MSC_RDPS_WindDir_IsbL-0300_RLatLon0.09_PT058H.grib2 2026-04-29 02:56 474K
20260429T00Z_MSC_RDPS_WindDir_IsbL-0350_RLatLon0.09_PT058H.grib2 2026-04-29 02:56 496K
20260429T00Z_MSC_RDPS_WindDir_IsbL-0400_RLatLon0.09_PT058H.grib2 2026-04-29 02:56 509K
20260429T00Z_MSC_RDPS_WindDir_IsbL-0450_RLatLon0.09_PT058H.grib2 2026-04-29 02:56 520K
20260429T00Z_MSC_RDPS_WindDir_IsbL-0500_RLatLon0.09_PT058H.grib2 2026-04-29 02:56 535K
20260429T00Z_MSC_RDPS_WindDir_IsbL-0550_RLatLon0.09_PT058H.grib2 2026-04-29 02:56 554K
20260429T00Z_MSC_RDPS_WindDir_IsbL-0600_RLatLon0.09_PT058H.grib2 2026-04-29 02:56 581K
20260429T00Z_MSC_RDPS_WindDir_IsbL-0650_RLatLon0.09_PT058H.grib2 2026-04-29 02:56 619K
20260429T00Z_MSC_RDPS_WindDir_IsbL-0700_RLatLon0.09_PT058H.grib2 2026-04-29 02:56 664K
20260429T00Z_MSC_RDPS_WindDir_IsbL-0750_RLatLon0.09_PT058H.grib2 2026-04-29 02:56 710K
20260429T00Z_MSC_RDPS_WindDir_IsbL-0800_RLatLon0.09_PT058H.grib2 2026-04-29 02:56 772K
20260429T00Z_MSC_RDPS_WindDir_IsbL-0850_RLatLon0.09_PT058H.grib2 2026-04-29 02:56 847K
20260429T00Z_MSC_RDPS_WindDir_IsbL-0875_RLatLon0.09_PT058H.grib2 2026-04-29 02:56 879K
20260429T00Z_MSC_RDPS_WindDir_IsbL-0900_RLatLon0.09_PT058H.grib2 2026-04-29 02:56 900K
20260429T00Z_MSC_RDPS_WindDir_IsbL-0925_RLatLon0.09_PT058H.grib2 2026-04-29 02:56 911K
20260429T00Z_MSC_RDPS_WindDir_IsbL-0950_RLatLon0.09_PT058H.grib2 2026-04-29 02:56 916K
20260429T00Z_MSC_RDPS_WindDir_IsbL-0970_RLatLon0.09_PT058H.grib2 2026-04-29 02:56 919K
20260429T00Z_MSC_RDPS_WindDir_IsbL-0985_RLatLon0.09_PT058H.grib2 2026-04-29 02:56 930K
20260429T00Z_MSC_RDPS_WindDir_IsbL-1000_RLatLon0.09_PT058H.grib2 2026-04-29 02:56 947K
20260429T00Z_MSC_RDPS_WindDir_IsbL-1015_RLatLon0.09_PT058H.grib2 2026-04-29 02:56 965K
20260429T00Z_MSC_RDPS_WindGust-Max_AGL-10m_RLatLon0.09_PT058H.grib2 2026-04-29 02:56 1.0M
20260429T00Z_MSC_RDPS_WindGust-Min_AGL-10m_RLatLon0.09_PT058H.grib2 2026-04-29 02:56 970K
20260429T00Z_MSC_RDPS_WindGust_AGL-10m_RLatLon0.09_PT058H.grib2 2026-04-29 02:56 1.0M
20260429T00Z_MSC_RDPS_WindSpeed_AGL-10m_RLatLon0.09_PT058H.grib2 2026-04-29 02:56 840K
20260429T00Z_MSC_RDPS_WindSpeed_AGL-120m_RLatLon0.09_PT058H.grib2 2026-04-29 02:56 541K
20260429T00Z_MSC_RDPS_WindSpeed_AGL-40m_RLatLon0.09_PT058H.grib2 2026-04-29 02:56 671K
20260429T00Z_MSC_RDPS_WindSpeed_AGL-80m_RLatLon0.09_PT058H.grib2 2026-04-29 02:56 541K
20260429T00Z_MSC_RDPS_WindSpeed_IsbL-0001_RLatLon0.09_PT058H.grib2 2026-04-29 02:56 332K
20260429T00Z_MSC_RDPS_WindSpeed_IsbL-0005_RLatLon0.09_PT058H.grib2 2026-04-29 02:56 383K
20260429T00Z_MSC_RDPS_WindSpeed_IsbL-0010_RLatLon0.09_PT058H.grib2 2026-04-29 02:56 305K
20260429T00Z_MSC_RDPS_WindSpeed_IsbL-0020_RLatLon0.09_PT058H.grib2 2026-04-29 02:56 323K
20260429T00Z_MSC_RDPS_WindSpeed_IsbL-0030_RLatLon0.09_PT058H.grib2 2026-04-29 02:56 321K
20260429T00Z_MSC_RDPS_WindSpeed_IsbL-0050_RLatLon0.09_PT058H.grib2 2026-04-29 02:56 352K
20260429T00Z_MSC_RDPS_WindSpeed_IsbL-0100_RLatLon0.09_PT058H.grib2 2026-04-29 02:56 473K
20260429T00Z_MSC_RDPS_WindSpeed_IsbL-0150_RLatLon0.09_PT058H.grib2 2026-04-29 02:56 375K
20260429T00Z_MSC_RDPS_WindSpeed_IsbL-0175_RLatLon0.09_PT058H.grib2 2026-04-29 02:56 421K
20260429T00Z_MSC_RDPS_WindSpeed_IsbL-0200_RLatLon0.09_PT058H.grib2 2026-04-29 02:56 438K
20260429T00Z_MSC_RDPS_WindSpeed_IsbL-0225_RLatLon0.09_PT058H.grib2 2026-04-29 02:56 446K
20260429T00Z_MSC_RDPS_WindSpeed_IsbL-0250_RLatLon0.09_PT058H.grib2 2026-04-29 02:56 448K
20260429T00Z_MSC_RDPS_WindSpeed_IsbL-0275_RLatLon0.09_PT058H.grib2 2026-04-29 02:56 466K
20260429T00Z_MSC_RDPS_WindSpeed_IsbL-0300_RLatLon0.09_PT058H.grib2 2026-04-29 02:56 463K
20260429T00Z_MSC_RDPS_WindSpeed_IsbL-0350_RLatLon0.09_PT058H.grib2 2026-04-29 02:56 474K
20260429T00Z_MSC_RDPS_WindSpeed_IsbL-0400_RLatLon0.09_PT058H.grib2 2026-04-29 02:56 475K
20260429T00Z_MSC_RDPS_WindSpeed_IsbL-0450_RLatLon0.09_PT058H.grib2 2026-04-29 02:56 459K
20260429T00Z_MSC_RDPS_WindSpeed_IsbL-0500_RLatLon0.09_PT058H.grib2 2026-04-29 02:56 459K
20260429T00Z_MSC_RDPS_WindSpeed_IsbL-0550_RLatLon0.09_PT058H.grib2 2026-04-29 02:56 458K
20260429T00Z_MSC_RDPS_WindSpeed_IsbL-0600_RLatLon0.09_PT058H.grib2 2026-04-29 02:56 583K
20260429T00Z_MSC_RDPS_WindSpeed_IsbL-0650_RLatLon0.09_PT058H.grib2 2026-04-29 02:56 605K
20260429T00Z_MSC_RDPS_WindSpeed_IsbL-0700_RLatLon0.09_PT058H.grib2 2026-04-29 02:56 631K
20260429T00Z_MSC_RDPS_WindSpeed_IsbL-0750_RLatLon0.09_PT058H.grib2 2026-04-29 02:56 704K
20260429T00Z_MSC_RDPS_WindSpeed_IsbL-0800_RLatLon0.09_PT058H.grib2 2026-04-29 02:56 749K
20260429T00Z_MSC_RDPS_WindSpeed_IsbL-0850_RLatLon0.09_PT058H.grib2 2026-04-29 02:56 809K
20260429T00Z_MSC_RDPS_WindSpeed_IsbL-0875_RLatLon0.09_PT058H.grib2 2026-04-29 02:56 831K
20260429T00Z_MSC_RDPS_WindSpeed_IsbL-0900_RLatLon0.09_PT058H.grib2 2026-04-29 02:56 849K
20260429T00Z_MSC_RDPS_WindSpeed_IsbL-0925_RLatLon0.09_PT058H.grib2 2026-04-29 02:56 861K
20260429T00Z_MSC_RDPS_WindSpeed_IsbL-0950_RLatLon0.09_PT058H.grib2 2026-04-29 02:56 862K
20260429T00Z_MSC_RDPS_WindSpeed_IsbL-0970_RLatLon0.09_PT058H.grib2 2026-04-29 02:56 860K
20260429T00Z_MSC_RDPS_WindSpeed_IsbL-0985_RLatLon0.09_PT058H.grib2 2026-04-29 02:56 854K
20260429T00Z_MSC_RDPS_WindSpeed_IsbL-1000_RLatLon0.09_PT058H.grib2 2026-04-29 02:56 847K
20260429T00Z_MSC_RDPS_WindSpeed_IsbL-1015_RLatLon0.09_PT058H.grib2 2026-04-29 02:56 838K
20260429T00Z_MSC_RDPS_WindU_AGL-10m_RLatLon0.09_PT058H.grib2 2026-04-29 02:56 432K
20260429T00Z_MSC_RDPS_WindU_AGL-120m_RLatLon0.09_PT058H.grib2 2026-04-29 02:56 538K
20260429T00Z_MSC_RDPS_WindU_AGL-40m_RLatLon0.09_PT058H.grib2 2026-04-29 02:56 540K
20260429T00Z_MSC_RDPS_WindU_AGL-80m_RLatLon0.09_PT058H.grib2 2026-04-29 02:56 539K
20260429T00Z_MSC_RDPS_WindU_IsbL-0001_RLatLon0.09_PT058H.grib2 2026-04-29 02:56 244K
20260429T00Z_MSC_RDPS_WindU_IsbL-0005_RLatLon0.09_PT058H.grib2 2026-04-29 02:56 287K
20260429T00Z_MSC_RDPS_WindU_IsbL-0010_RLatLon0.09_PT058H.grib2 2026-04-29 02:56 298K
20260429T00Z_MSC_RDPS_WindU_IsbL-0020_RLatLon0.09_PT058H.grib2 2026-04-29 02:56 315K
20260429T00Z_MSC_RDPS_WindU_IsbL-0030_RLatLon0.09_PT058H.grib2 2026-04-29 02:56 315K
20260429T00Z_MSC_RDPS_WindU_IsbL-0050_RLatLon0.09_PT058H.grib2 2026-04-29 02:56 345K
20260429T00Z_MSC_RDPS_WindU_IsbL-0100_RLatLon0.09_PT058H.grib2 2026-04-29 02:56 428K
20260429T00Z_MSC_RDPS_WindU_IsbL-0150_RLatLon0.09_PT058H.grib2 2026-04-29 02:56 391K
20260429T00Z_MSC_RDPS_WindU_IsbL-0175_RLatLon0.09_PT058H.grib2 2026-04-29 02:56 414K
20260429T00Z_MSC_RDPS_WindU_IsbL-0200_RLatLon0.09_PT058H.grib2 2026-04-29 02:56 335K
20260429T00Z_MSC_RDPS_WindU_IsbL-0225_RLatLon0.09_PT058H.grib2 2026-04-29 02:56 339K
20260429T00Z_MSC_RDPS_WindU_IsbL-0250_RLatLon0.09_PT058H.grib2 2026-04-29 02:56 339K
20260429T00Z_MSC_RDPS_WindU_IsbL-0275_RLatLon0.09_PT058H.grib2 2026-04-29 02:56 354K
20260429T00Z_MSC_RDPS_WindU_IsbL-0300_RLatLon0.09_PT058H.grib2 2026-04-29 02:56 351K
20260429T00Z_MSC_RDPS_WindU_IsbL-0350_RLatLon0.09_PT058H.grib2 2026-04-29 02:56 359K
20260429T00Z_MSC_RDPS_WindU_IsbL-0400_RLatLon0.09_PT058H.grib2 2026-04-29 02:56 361K
20260429T00Z_MSC_RDPS_WindU_IsbL-0450_RLatLon0.09_PT058H.grib2 2026-04-29 02:56 464K
20260429T00Z_MSC_RDPS_WindU_IsbL-0500_RLatLon0.09_PT058H.grib2 2026-04-29 02:56 465K
20260429T00Z_MSC_RDPS_WindU_IsbL-0550_RLatLon0.09_PT058H.grib2 2026-04-29 02:56 466K
20260429T00Z_MSC_RDPS_WindU_IsbL-0600_RLatLon0.09_PT058H.grib2 2026-04-29 02:56 474K
20260429T00Z_MSC_RDPS_WindU_IsbL-0650_RLatLon0.09_PT058H.grib2 2026-04-29 02:56 476K
20260429T00Z_MSC_RDPS_WindU_IsbL-0700_RLatLon0.09_PT058H.grib2 2026-04-29 02:56 501K
20260429T00Z_MSC_RDPS_WindU_IsbL-0750_RLatLon0.09_PT058H.grib2 2026-04-29 02:56 526K
20260429T00Z_MSC_RDPS_WindU_IsbL-0800_RLatLon0.09_PT058H.grib2 2026-04-29 02:56 565K
20260429T00Z_MSC_RDPS_WindU_IsbL-0850_RLatLon0.09_PT058H.grib2 2026-04-29 02:56 618K
20260429T00Z_MSC_RDPS_WindU_IsbL-0875_RLatLon0.09_PT058H.grib2 2026-04-29 02:56 637K
20260429T00Z_MSC_RDPS_WindU_IsbL-0900_RLatLon0.09_PT058H.grib2 2026-04-29 02:56 650K
20260429T00Z_MSC_RDPS_WindU_IsbL-0925_RLatLon0.09_PT058H.grib2 2026-04-29 02:56 659K
20260429T00Z_MSC_RDPS_WindU_IsbL-0950_RLatLon0.09_PT058H.grib2 2026-04-29 02:56 660K
20260429T00Z_MSC_RDPS_WindU_IsbL-0970_RLatLon0.09_PT058H.grib2 2026-04-29 02:56 797K
20260429T00Z_MSC_RDPS_WindU_IsbL-0985_RLatLon0.09_PT058H.grib2 2026-04-29 02:56 792K
20260429T00Z_MSC_RDPS_WindU_IsbL-1000_RLatLon0.09_PT058H.grib2 2026-04-29 02:56 787K
20260429T00Z_MSC_RDPS_WindU_IsbL-1015_RLatLon0.09_PT058H.grib2 2026-04-29 02:56 827K
20260429T00Z_MSC_RDPS_WindV_AGL-10m_RLatLon0.09_PT058H.grib2 2026-04-29 02:56 429K
20260429T00Z_MSC_RDPS_WindV_AGL-120m_RLatLon0.09_PT058H.grib2 2026-04-29 02:56 534K
20260429T00Z_MSC_RDPS_WindV_AGL-40m_RLatLon0.09_PT058H.grib2 2026-04-29 02:56 536K
20260429T00Z_MSC_RDPS_WindV_AGL-80m_RLatLon0.09_PT058H.grib2 2026-04-29 02:56 535K
20260429T00Z_MSC_RDPS_WindV_IsbL-0001_RLatLon0.09_PT058H.grib2 2026-04-29 02:56 246K
20260429T00Z_MSC_RDPS_WindV_IsbL-0005_RLatLon0.09_PT058H.grib2 2026-04-29 02:56 288K
20260429T00Z_MSC_RDPS_WindV_IsbL-0010_RLatLon0.09_PT058H.grib2 2026-04-29 02:56 301K
20260429T00Z_MSC_RDPS_WindV_IsbL-0020_RLatLon0.09_PT058H.grib2 2026-04-29 02:56 318K
20260429T00Z_MSC_RDPS_WindV_IsbL-0030_RLatLon0.09_PT058H.grib2 2026-04-29 02:56 317K
20260429T00Z_MSC_RDPS_WindV_IsbL-0050_RLatLon0.09_PT058H.grib2 2026-04-29 02:56 343K
20260429T00Z_MSC_RDPS_WindV_IsbL-0100_RLatLon0.09_PT058H.grib2 2026-04-29 02:56 426K
20260429T00Z_MSC_RDPS_WindV_IsbL-0150_RLatLon0.09_PT058H.grib2 2026-04-29 02:56 390K
20260429T00Z_MSC_RDPS_WindV_IsbL-0175_RLatLon0.09_PT058H.grib2 2026-04-29 02:56 414K
20260429T00Z_MSC_RDPS_WindV_IsbL-0200_RLatLon0.09_PT058H.grib2 2026-04-29 02:56 333K
20260429T00Z_MSC_RDPS_WindV_IsbL-0225_RLatLon0.09_PT058H.grib2 2026-04-29 02:56 337K
20260429T00Z_MSC_RDPS_WindV_IsbL-0250_RLatLon0.09_PT058H.grib2 2026-04-29 02:56 337K
20260429T00Z_MSC_RDPS_WindV_IsbL-0275_RLatLon0.09_PT058H.grib2 2026-04-29 02:56 352K
20260429T00Z_MSC_RDPS_WindV_IsbL-0300_RLatLon0.09_PT058H.grib2 2026-04-29 02:56 348K
20260429T00Z_MSC_RDPS_WindV_IsbL-0350_RLatLon0.09_PT058H.grib2 2026-04-29 02:56 460K
20260429T00Z_MSC_RDPS_WindV_IsbL-0400_RLatLon0.09_PT058H.grib2 2026-04-29 02:56 460K
20260429T00Z_MSC_RDPS_WindV_IsbL-0450_RLatLon0.09_PT058H.grib2 2026-04-29 02:56 462K
20260429T00Z_MSC_RDPS_WindV_IsbL-0500_RLatLon0.09_PT058H.grib2 2026-04-29 02:56 462K
20260429T00Z_MSC_RDPS_WindV_IsbL-0550_RLatLon0.09_PT058H.grib2 2026-04-29 02:56 463K
20260429T00Z_MSC_RDPS_WindV_IsbL-0600_RLatLon0.09_PT058H.grib2 2026-04-29 02:56 453K
20260429T00Z_MSC_RDPS_WindV_IsbL-0650_RLatLon0.09_PT058H.grib2 2026-04-29 02:56 473K
20260429T00Z_MSC_RDPS_WindV_IsbL-0700_RLatLon0.09_PT058H.grib2 2026-04-29 02:56 496K
20260429T00Z_MSC_RDPS_WindV_IsbL-0750_RLatLon0.09_PT058H.grib2 2026-04-29 02:56 521K
20260429T00Z_MSC_RDPS_WindV_IsbL-0800_RLatLon0.09_PT058H.grib2 2026-04-29 02:56 561K
20260429T00Z_MSC_RDPS_WindV_IsbL-0850_RLatLon0.09_PT058H.grib2 2026-04-29 02:56 614K
20260429T00Z_MSC_RDPS_WindV_IsbL-0875_RLatLon0.09_PT058H.grib2 2026-04-29 02:56 634K
20260429T00Z_MSC_RDPS_WindV_IsbL-0900_RLatLon0.09_PT058H.grib2 2026-04-29 02:56 649K
20260429T00Z_MSC_RDPS_WindV_IsbL-0925_RLatLon0.09_PT058H.grib2 2026-04-29 02:56 797K
20260429T00Z_MSC_RDPS_WindV_IsbL-0950_RLatLon0.09_PT058H.grib2 2026-04-29 02:56 797K
20260429T00Z_MSC_RDPS_WindV_IsbL-0970_RLatLon0.09_PT058H.grib2 2026-04-29 02:56 793K
20260429T00Z_MSC_RDPS_WindV_IsbL-0985_RLatLon0.09_PT058H.grib2 2026-04-29 02:56 788K
20260429T00Z_MSC_RDPS_WindV_IsbL-1000_RLatLon0.09_PT058H.grib2 2026-04-29 02:56 827K
20260429T00Z_MSC_RDPS_WindV_IsbL-1015_RLatLon0.09_PT058H.grib2 2026-04-29 02:56 820K